OpenBCM V2.0.2 (Linux)

Packet Radio Mailbox

IZ3LSV

[San Dona' di P. JN]

 Login: GUEST





  
LU1HVK > KEP      10.01.20 17:53l 241 Lines 12023 Bytes #999 (0) @ WW
BID : 38689_LU1HVK
Read: GUEST
Subj: TLE 30 10
Path: IZ3LSV<IW0QNL<JH4XSY<N3HYM<XE1FH<LU1HVK
Sent: 200110/1525Z 38689@LU1HVK.2594.CBA.ARG.SA LinBPQ6.0.19

                         _    _   _ _ _   ___     ___  __
                        | |  | | | / | | | \ \   / / |/ /
                        | |  | | | | | |_| |\ \ / /| ' /
                        | |__| |_| | |  _  | \ V / | . \
                        |_____\___/|_|_| |_|  \_/  |_|\_\

     BBS/NODO - CORDOBA (LEONES-FF87UH) - LU1HVK-4 NODO - LU1HVK-3 APRS

+----------------------------------------------------------------------------+
OSCAR 7
1  7530U 74089B   19302.89352333 -.00000044 +00000-0 +52079-5 0  9991
2  7530 101.7636 269.2722 0012486 089.4778 326.1641 12.53640582056971
OSCAR 11 (UoSAT 2)
1 14781U 84021B   19302.61161323 +.00000074 +00000-0 +15184-4 0  9998
2 14781 097.6036 320.9898 0007184 237.7582 122.2937 14.83115826897466
OSCAR 19 (LUSAT)
1 20442U 90005G   19302.89889151 -.00000002 +00000-0 +15627-4 0  9998
2 20442 098.6614 244.7454 0012747 114.4412 245.8103 14.32936165555396
EYESAT A
1 22825U 93061C   19302.92595097 -.00000016 +00000-0 +12019-4 0  9994
2 22825 098.9143 294.6729 0007999 337.9899 022.0937 14.30069690360725
ITAMSAT
1 22826U 93061D   19302.89655586 -.00000008 +00000-0 +14897-4 0  9998
2 22826 098.9083 294.6175 0008345 325.6962 034.3680 14.30403953360944
RADIO ROSTO
1 23439U 94085A   19302.90648977 -.00000052 +00000-0 -28595-3 0  9993
2 23439 064.8155 260.6953 0145277 087.1929 274.5612 11.27568480022918
JAS 2
1 24278U 96046B   19302.87063407 -.00000044 +00000-0 -56609-5 0  9999
2 24278 098.5581 078.3397 0349381 254.7162 101.5113 13.53094299145561
TECHSAT 1B
1 25397U 98043D   19302.87186245 -.00000013 +00000-0 +13778-4 0  9991
2 25397 098.7003 241.4624 0001886 045.5169 314.6163 14.23673134106602
ISS (ZARYA)
1 25544U 98067A   19302.82636727  .00001167  00000-0  28258-4 0  9990
2 25544  51.6457  53.6746 0006365 202.2254 299.7415 15.50231064196143
PCSAT
1 26931U 01043C   19302.61695267 -.00000022  00000-0  23268-4 0  9996
2 26931  67.0532  20.6658 0007487 267.0099  93.0146 14.30556665943989
SAUDISAT 1C
1 27607U 02058C   19302.51959702 +.00000044 +00000-0 +26978-4 0  9994
2 27607 064.5564 003.4890 0073976 230.6368 128.8166 14.75583707906507
CUTE-1
1 27844U 03031E   19302.90305430 +.00000049 +00000-0 +41703-4 0  9993
2 27844 098.6851 309.1302 0010037 011.9938 348.1476 14.22202098847185
CUBESAT XI 4
1 27848U 03031J   19302.93322588 +.00000032 +00000-0 +34569-4 0  9997
2 27848 098.6923 309.6866 0010130 023.5223 336.6416 14.21794183847040
MOZHAYETS 4
1 27939U 03042A   19302.93399910 +.00000038 +00000-0 +15499-4 0  9990
2 27939 098.0600 076.3030 0013054 011.8760 348.2749 14.66812346860079
CUBESAT XI 5
1 28895U 05043F   19302.88195473 +.00000135 +00000-0 +34716-4 0  9998
2 28895 097.9788 081.2015 0015532 292.8531 067.1032 14.63704502746733
CUTE-1.7+APD II
1 32785U 08021C   19302.80245036 +.00000242 +00000-0 +31713-4 0  9996
2 32785 097.5571 296.2901 0013087 175.0132 185.1218 14.88364600623410
DELFI C3
1 32789U 08021G   19302.80816252 +.00001853 +00000-0 +12686-3 0  9990
2 32789 097.4501 348.3693 0012845 036.6309 323.5795 15.07212006626912
SEEDS
1 32791U 08021J   19302.52900937 +.00000301 +00000-0 +35798-4 0  9993
2 32791 097.5321 302.1182 0014056 149.7263 210.4770 14.90897018623825
YUBELEINY
1 32953U 08025A   19302.84535498  .00000020  00000-0  75656-4 0  9993
2 32953  82.5028  61.9451 0019434 196.5445 163.5004 12.43092104518852
PRISM (HITOMI)
1 33493U 09002B   19302.83613841 +.00000364 +00000-0 +37322-4 0  9996
2 33493 098.1243 228.8482 0016459 100.1248 260.1830 14.96783964585056
KKS-1 (KISEKI)
1 33499U 09002H   19302.86590243 +.00000120 +00000-0 +25752-4 0  9999
2 33499 098.3390 145.7665 0009926 136.8925 223.3062 14.75473799578437
SWISSCUBE
1 35932U 09051B   19302.75149678 +.00000126 +00000-0 +39419-4 0  9998
2 35932 098.5994 112.7278 0008612 114.5974 245.6121 14.56323055536104
BEESAT
1 35933U 09051C   19302.47171950 +.00000123 +00000-0 +38857-4 0  9998
2 35933 098.6010 114.2518 0006693 125.7066 234.4754 14.56407397536135
ITUPSAT 1
1 35935U 09051E   19302.46868456  .00000102  00000-0  34522-4 0  9995
2 35935  98.6120 114.4759 0009021 125.2373 234.9668 14.55562130535956
XIWANG-1 (HOPE-1)
1 36122U 09072B   19302.74384771 -.00000041 +00000-0 +24713-5 0  9996
2 36122 100.0799 298.8982 0008053 043.8117 316.3635 13.16351608474385
TISAT 1
1 36799U 10035E   19302.88315797 +.00000283 +00000-0 +34654-4 0  9995
2 36799 098.1724 099.6024 0012483 015.4652 344.6944 14.91188601504415
JUGNU
1 37839U 11058B   19302.95202852 +.00000328 +00000-0 +33239-4 0  9990
2 37839 019.9607 246.6666 0018813 356.8824 056.3762 14.12662891416018
SRMSAT
1 37841U 11058D   19302.43480914 +.00000305 +00000-0 +22253-4 0  9992
2 37841 019.9729 309.3251 0011692 214.0266 302.9683 14.10641810415361
M-CUBED/EXP-1 PRIME
1 37855U 11061F   19302.84721241 +.00002538 +00000-0 +13309-3 0  9998
2 37855 101.7191 266.8211 0172901 041.9781 319.4534 15.05701391436347
HORYU 2
1 38340U 12025D   19302.87672049 +.00000216 +00000-0 +39575-4 0  9998
2 38340 098.3151 345.3682 0012576 063.4754 296.7742 14.75766303390391
STRAND 1
1 39090U 13009E   19302.81557807 +.00000051 +00000-0 +33139-4 0  9999
2 39090 098.4745 146.4659 0008068 251.9108 108.1199 14.35102662349468
SOMP
1 39134U 13015E   19302.43725644  .00001972  00000-0  97830-4 0  9990
2 39134  64.8635 310.2853 0037178 282.3663  77.3304 15.20440054360774
BEESAT 3
1 39135U 13015F   19302.53076606  .00001244  00000-0  70341-4 0  9999
2 39135  64.8677 330.1689 0038310 288.0135  71.6818 15.17686686360401
BEESAT 2
1 39136U 13015G   19302.48662370 +.00001200 +00000-0 +69690-4 0  9990
2 39136 064.8687 334.5195 0029568 292.9581 066.8426 15.17102333359925
CUBEBUG 1
1 39153U 13018D   19302.83188646 +.00000253 +00000-0 +39891-4 0  9997
2 39153 097.9816 040.2313 0018131 124.8906 235.4014 14.80615043351437
ZACUBE
1 39417U 13066B   19302.92759905 +.00000255 +00000-0 +38450-4 0  9997
2 39417 097.5623 308.9406 0057910 318.2725 041.4079 14.81169085320764
TRITON 1
1 39427U 13066M   19302.92728554 +.00000216 +00000-0 +41967-4 0  9998
2 39427 097.6936 272.1905 0115173 098.7808 262.6461 14.67896614317696
GOMX 1
1 39430U 13066Q   19302.91949964 +.00000162 +00000-0 +38350-4 0  9993
2 39430 097.7616 250.7974 0150554 193.7804 165.9271 14.59301179316037
HUMSAT D
1 39433U 13066T   19302.65154275 +.00000459 +00000-0 +49989-4 0  9999
2 39433 097.5389 344.6236 0029943 214.5096 145.4180 14.92283823321727
CUBEBUG 2
1 39440U 13066AA  19302.90592109 +.00000275 +00000-0 +45031-4 0  9997
2 39440 097.6111 293.5362 0080582 013.2673 347.0631 14.75906437318420
FUNCUBE 1
1 39444U 13066AE  19302.92170067 +.00000311 +00000-0 +44651-4 0  9996
2 39444 097.5592 311.0045 0056880 311.4669 048.1668 14.81999102319071
UWE-3
1 39446U 13066AG  19302.88486633 +.00000260 +00000-0 +41143-4 0  9998
2 39446 097.5860 300.6648 0069665 346.6436 013.2929 14.78441489318350
SPROUT
1 39770U 14029E   19302.89872342 +.00000717 +00000-0 +85207-4 0  9991
2 39770 097.8894 045.3750 0009291 015.5692 344.5789 14.87477605294639
UNISAT 6
1 40012U 14033C   19302.93192671 +.00000208 +00000-0 +38199-4 0  9995
2 40012 097.7372 163.6725 0059111 029.1014 331.3468 14.74024522288319
DUCHIFAT 1
1 40021U 14033M   19302.85492333 +.00000472 +00000-0 +53896-4 0  9998
2 40021 097.9266 227.8984 0012452 337.5813 022.4859 14.90719362291387
QB50P1
1 40025U 14033R   19302.82683008 +.00000314 +00000-0 +39355-4 0  9999
2 40025 097.9051 222.2827 0012167 348.3343 011.7590 14.89008278290623
CHUBUSAT 1
1 40300U 14070C   19302.79066188  .00001006  00000-0  46607-4 0  9993
2 40300  97.3166  13.5350 0019212 311.2519 187.6600 15.22225589276267
NUDT-PHONESAT
1 40900U 15049B   19302.83028100  .00003048  00000-0  13154-3 0  9991
2 40900  97.4372 310.8884 0014474  78.7415  45.6501 15.23202896227922
ZDPS 2A
1 40901U 15049C   19302.91422781 +.00001092 +00000-0 +57057-4 0  9992
2 40901 097.4622 306.8379 0014955 097.6952 349.7425 15.17898717227441
ZDPS 2B
1 40902U 15049D   19302.94777510 +.00001546 +00000-0 +79707-4 0  9999
2 40902 097.4577 304.2606 0015069 095.6254 320.6349 15.17774410227420
XW-2A
1 40903U 15049E   19302.75127880  .00003004  00000-0  71699-4 0  9991
2 40903  97.3230 346.1835 0014095  30.0551 107.4875 15.42252848230755
KAITUO 1A
1 40904U 15049F   19302.91624032 +.00000685 +00000-0 +39611-4 0  9991
2 40904 097.4716 302.6815 0016132 104.4281 342.9160 15.15478601227173
OBJECT G
1 40905U 15049G   19302.95353769 +.00000287 +00000-0 +19153-4 0  9999
2 40905 097.4763 300.1326 0017128 100.2301 314.0588 15.14373562227048
XW-2C
1 40906U 15049H   19302.94961296 +.00000712 +00000-0 +40634-4 0  9990
2 40906 097.4719 302.8607 0016424 096.1880 319.6245 15.15799589227182
XW-2D
1 40907U 15049J   19302.78385559  .00000990  00000-0  54863-4 0  9992
2 40907  97.4697 302.3793 0015820  94.3381 351.5797 15.16000320227179
LILACSAT 2
1 40908U 15049K   19302.91552314 +.00000483 +00000-0 +30230-4 0  9992
2 40908 097.4839 301.1814 0017512 101.0696 346.2435 15.13878170226963
XW-2F
1 40910U 15049M   19302.75011189  .00001412  00000-0  73625-4 0  9995
2 40910  97.4659 304.5514 0016447  86.9591   0.6048 15.17497254227192
XW-2B
1 40911U 15049N   19302.95106078 +.00000833 +00000-0 +46832-4 0  9996
2 40911 097.4718 303.2158 0015757 094.3630 331.5061 15.15927726227099
KAITUO 1B
1 40912U 15049P   19302.77520154  .00001557  00000-0  75637-4 0  9991
2 40912  97.4505 308.4261 0016376  69.7215  15.9696 15.19834386227527
TIANWANG 1C (TW-1C)
1 40926U 15051B   19302.82593137  .00021097  00000-0  27787-3 0  9999
2 40926  97.1204 348.9309 0006101 226.7601 221.9667 15.58442086230870
TIANWANG 1B (TW-1B)
1 40927U 15051C   19302.79770120  .00019818  00000-0  27890-3 0  9998
2 40927  97.1234 347.9955 0006233 243.6827 207.1509 15.56671445230708
